TimeCEST,TemperatureF,Dew PointF,Humidity,Sea Level PressureIn,VisibilityMPH,Wind Direction,Wind SpeedMPH,Gust SpeedMPH,PrecipitationIn,Events,Conditions,WindDirDegrees,DateUTC
12:20 AM,66.2,62.6,88,30.12,-9999.0,Calm,Calm,-,N/A,,Clear,0,2012-10-06 22:20:00
12:50 AM,66.2,62.6,88,30.12,-9999.0,Calm,Calm,-,N/A,,Clear,0,2012-10-06 22:50:00
1:20 AM,62.6,60.8,94,30.12,-9999.0,Calm,Calm,-,N/A,,Clear,0,2012-10-06 23:20:00
1:50 AM,62.6,60.8,94,30.12,-9999.0,West,2.3,-,N/A,,Clear,270,2012-10-06 23:50:00
2:20 AM,64.4,62.6,94,30.12,4.3,Variable,1.2,-,N/A,,Unknown,0,2012-10-07 00:20:00
2:50 AM,62.6,60.8,94,30.12,4.3,Calm,Calm,-,N/A,,Unknown,0,2012-10-07 00:50:00
3:20 AM,62.6,60.8,94,30.09,4.3,Variable,1.2,-,N/A,,Unknown,0,2012-10-07 01:20:00
3:50 AM,62.6,60.8,94,30.09,4.3,NW,2.3,-,N/A,,Unknown,310,2012-10-07 01:50:00
4:20 AM,62.6,60.8,94,30.09,4.3,Calm,Calm,-,N/A,,Unknown,0,2012-10-07 02:20:00
4:50 AM,60.8,59.0,94,30.09,4.3,Calm,Calm,-,N/A,,Unknown,0,2012-10-07 02:50:00
5:20 AM,60.8,59.0,94,30.09,4.3,NE,2.3,-,N/A,,Unknown,50,2012-10-07 03:20:00
5:50 AM,60.8,59.0,94,30.09,3.7,Calm,Calm,-,N/A,,Unknown,0,2012-10-07 03:50:00
6:20 AM,60.8,60.8,100,30.09,3.7,Calm,Calm,-,N/A,,Unknown,0,2012-10-07 04:20:00
6:50 AM,-9999,-9999,N/A,-9999,-9999.0,North,-9999.0,-,N/A,,Unknown,0,2012-10-07 04:50:00
7:20 AM,62.6,60.8,94,30.09,3.7,Variable,1.2,-,N/A,,Unknown,0,2012-10-07 05:20:00
7:50 AM,60.8,59.0,94,30.09,4.3,Calm,Calm,-,N/A,,Unknown,0,2012-10-07 05:50:00
8:20 AM,66.2,62.6,88,30.09,4.3,Calm,Calm,-,N/A,,Unknown,0,2012-10-07 06:20:00
8:50 AM,71.6,66.2,83,30.09,6.2,Calm,Calm,-,N/A,,Partly Cloudy,0,2012-10-07 06:50:00
9:20 AM,71.6,64.4,78,30.09,6.2,Variable,2.3,-,N/A,,Partly Cloudy,0,2012-10-07 07:20:00
9:50 AM,71.6,64.4,78,30.09,6.2,Variable,2.3,-,N/A,,Partly Cloudy,0,2012-10-07 07:50:00
10:20 AM,73.4,64.4,73,30.09,6.2,Variable,3.5,-,N/A,,Partly Cloudy,0,2012-10-07 08:20:00
10:50 AM,73.4,64.4,73,30.09,6.2,South,4.6,-,N/A,,Scattered Clouds,170,2012-10-07 08:50:00
11:20 AM,73.4,64.4,73,30.09,6.2,SSW,6.9,-,N/A,,Scattered Clouds,200,2012-10-07 09:20:00
11:50 AM,75.2,64.4,69,30.09,6.2,South,5.8,-,N/A,,Scattered Clouds,190,2012-10-07 09:50:00
12:20 PM,75.2,64.4,69,30.09,6.2,SSW,6.9,-,N/A,,Scattered Clouds,200,2012-10-07 10:20:00
12:50 PM,75.2,64.4,69,30.06,6.2,South,8.1,-,N/A,,Mostly Cloudy,180,2012-10-07 10:50:00
1:20 PM,75.2,64.4,69,30.06,6.2,South,9.2,-,N/A,,Mostly Cloudy,180,2012-10-07 11:20:00
1:50 PM,75.2,62.6,65,30.06,6.2,SSW,9.2,-,N/A,,Mostly Cloudy,210,2012-10-07 11:50:00
2:20 PM,75.2,62.6,65,30.04,6.2,SSW,8.1,-,N/A,,Mostly Cloudy,200,2012-10-07 12:20:00
2:50 PM,75.2,62.6,65,30.04,6.2,SSW,6.9,-,N/A,,Mostly Cloudy,200,2012-10-07 12:50:00
3:20 PM,73.4,62.6,69,30.04,6.2,SSW,6.9,-,N/A,,Mostly Cloudy,200,2012-10-07 13:20:00
3:50 PM,-9999,-9999,N/A,-9999,6.2,SSW,8.1,-,N/A,,Unknown,200,2012-10-07 13:50:00
4:20 PM,75.2,64.4,69,30.01,6.2,SSW,6.9,-,N/A,,Scattered Clouds,210,2012-10-07 14:20:00
4:50 PM,73.4,64.4,73,30.01,6.2,SSW,6.9,-,N/A,,Scattered Clouds,200,2012-10-07 14:50:00
5:20 PM,73.4,64.4,73,30.01,6.2,SSW,6.9,-,N/A,,Scattered Clouds,200,2012-10-07 15:20:00
5:50 PM,73.4,64.4,73,30.01,6.2,SSW,6.9,-,N/A,,Scattered Clouds,200,2012-10-07 15:50:00
6:20 PM,73.4,64.4,73,30.01,6.2,SSW,4.6,-,N/A,,Mostly Cloudy,200,2012-10-07 16:20:00
6:50 PM,71.6,64.4,78,30.01,6.2,SSW,5.8,-,N/A,,Mostly Cloudy,210,2012-10-07 16:50:00
7:20 PM,71.6,64.4,78,30.01,6.2,SSW,5.8,-,N/A,,Mostly Cloudy,210,2012-10-07 17:20:00
7:50 PM,71.6,64.4,78,30.01,6.2,SSW,3.5,-,N/A,,Partly Cloudy,200,2012-10-07 17:50:00
8:20 PM,71.6,64.4,78,30.01,6.2,Variable,2.3,-,N/A,,Partly Cloudy,0,2012-10-07 18:20:00
8:50 PM,71.6,64.4,78,30.01,-9999.0,South,3.5,-,N/A,,Clear,190,2012-10-07 18:50:00
9:20 PM,71.6,64.4,78,30.01,6.2,Variable,2.3,-,N/A,,Partly Cloudy,0,2012-10-07 19:20:00
9:50 PM,71.6,64.4,78,30.01,6.2,SSW,2.3,-,N/A,,Partly Cloudy,200,2012-10-07 19:50:00
10:20 PM,71.6,64.4,78,30.01,-9999.0,SSW,2.3,-,N/A,,Clear,210,2012-10-07 20:20:00
10:50 PM,68.0,64.4,88,30.01,6.2,West,2.3,-,N/A,,Partly Cloudy,260,2012-10-07 20:50:00
11:20 PM,69.8,64.4,83,30.01,6.2,ENE,2.3,-,N/A,,Partly Cloudy,60,2012-10-07 21:20:00
11:50 PM,69.8,64.4,83,29.98,6.2,Calm,Calm,-,N/A,,Scattered Clouds,0,2012-10-07 21:50:00